DW9246 Weather Reports


Display with metric or nautical units.
time (UTC)temp
F
wind
direction
speed
MPH
gust
MPH
rain 1hr
in
rain 24hr
in
rain mn
in
humidity
%
barometer
mb
20260502210024 60 94 3.0 7.0 0.00 0.33 0.33 86 1019.8
20260502205020 60 105 3.0 7.0 0.00 0.33 0.33 86 1019.8
20260502204020 60 108 3.0 8.0 0.00 0.33 0.33 86 1019.7
20260502203021 60 102 3.0 7.0 0.00 0.33 0.33 86 1019.7
20260502202023 60 106 3.0 7.0 0.00 0.33 0.33 85 1019.7
20260502201020 60 106 3.0 7.0 0.00 0.33 0.33 85 1019.6
20260502200021 60 108 3.0 7.0 0.00 0.33 0.33 84 1019.6
20260502194020 60 126 2.0 7.0 0.00 0.33 0.33 84 1019.5
20260502191020 60 92 3.0 6.0 0.00 0.33 0.33 83 1019.6
20260502190019 60 105 3.0 5.0 0.00 0.33 0.33 82 1019.5
20260502185021 60 117 2.0 7.0 0.00 0.33 0.33 82 1019.4
20260502184019 60 115 3.0 7.0 0.00 0.33 0.33 82 1019.3
20260502183019 60 117 4.0 9.0 0.00 0.33 0.33 81 1019.4
20260502181019 61 124 3.0 8.0 0.00 0.33 0.33 81 1019.8
20260502164021 62 140 3.0 8.0 0.00 0.33 0.33 77 1020.4
20260502163019 62 130 5.0 12.0 0.00 0.33 0.33 78 1020.1
20260502162019 62 146 8.0 13.0 0.00 0.33 0.33 78 1020.0
20260502152019 63 151 8.0 13.0 0.00 0.33 0.33 73 1020.6
20260502151020 64 135 7.0 13.0 0.00 0.33 0.33 73 1020.5
20260502123019 64 163 8.0 14.0 0.00 0.33 0.33 75 1022.4
20260502122019 63 155 8.0 14.0 0.00 0.33 0.33 74 1022.4
20260502121019 64 147 8.0 15.0 0.00 0.33 0.33 74 1022.4
20260502113018 64 139 7.0 15.0 0.00 0.33 0.33 75 1022.6
20260502112022 64 147 7.0 13.0 0.00 0.33 0.33 76 1022.7
20260502111022 63 158 9.0 14.0 0.00 0.33 0.33 75 1022.9
20260502110020 64 154 7.0 13.0 0.00 0.33 0.33 75 1023.0
20260502105019 64 156 7.0 12.0 0.00 0.33 0.33 74 1023.1
20260502104018 64 153 7.0 12.0 0.00 0.33 0.33 76 1023.2
20260502103019 63 140 6.0 11.0 0.00 0.33 0.33 74 1023.2
20260502102020 64 149 7.0 12.0 0.00 0.33 0.33 75 1023.2
20260502101019 63 130 4.0 9.0 0.00 0.33 0.33 77 1023.2
20260502091018 62 95 6.0 11.0 0.00 0.33 0.33 79 1023.3
20260502071020 58 56 6.0 11.0 0.01 0.32 0.32 88 1023.8
20260502065018 58 55 7.0 12.0 0.01 0.32 0.32 88 1023.6
20260502064020 58 55 7.0 12.0 0.02 0.32 0.32 88 1023.6
20260502062020 57 52 6.0 12.0 0.02 0.31 0.31 88 1023.6
20260502061019 57 50 8.0 13.0 0.02 0.31 0.31 88 1023.5
20260502060018 56 54 8.0 14.0 0.02 0.31 0.31 88 1023.5
20260502055020 56 59 8.0 13.0 0.02 0.31 0.31 88 1023.4
20260502054018 56 60 6.0 11.0 0.05 0.31 0.31 90 1023.4
20260502053019 56 58 6.0 13.0 0.06 0.30 0.30 90 1023.3
20260502052019 56 65 8.0 13.0 0.10 0.30 0.30 91 1023.1
20260502051019 56 57 7.0 13.0 0.15 0.30 0.30 91 1023.1
20260502050022 56 66 8.0 13.0 0.16 0.30 0.30 91 1023.1
20260502045018 57 81 7.0 13.0 0.20 0.30 0.30 91 1023.1
20260502044018 58 81 7.0 12.0 0.18 0.26 0.26 91 1023.0
20260502043019 58 117 5.0 11.0 0.18 0.24 0.24 91 1023.0
20260502042020 59 122 4.0 7.0 0.14 0.18 0.18 90 1022.9
20260502041019 59 100 5.0 11.0 0.13 0.15 0.15 90 1022.9
20260502040022 59 73 6.0 11.0 0.13 0.14 0.14 88 1022.7
20260502035021 60 93 4.0 9.0 0.10 0.10 0.10 88 1022.8
20260502034019 60 98 4.0 8.0 0.08 0.08 0.08 87 1022.8
20260502032020 60 123 3.0 7.0 0.04 0.04 0.04 86 1023.0
20260502031018 60 117 1.0 4.0 0.02 0.02 0.02 85 1023.0
20260502025020 61 95 4.0 7.0 0.00 0.00 0.00 83 1022.9
20260502022019 61 85 3.0 6.0 0.00 0.00 0.00 82 1022.9
20260502021019 61 77 4.0 7.0 0.00 0.00 0.00 82 1023.0
20260502020022 60 83 4.0 8.0 0.00 0.00 0.00 81 1023.1
20260502015018 60 78 4.0 8.0 0.00 0.00 0.00 82 1023.1
20260502014020 60 71 5.0 11.0 0.00 0.00 0.00 81 1023.2
20260502013019 60 73 5.0 10.0 0.00 0.00 0.00 81 1023.4
20260502012019 60 70 5.0 9.0 0.00 0.00 0.00 81 1023.4
20260502011026 60 83 4.0 8.0 0.00 0.00 0.00 81 1023.5
20260502005019 61 72 5.0 9.0 0.00 0.00 0.00 80 1023.7
20260502004022 60 81 5.0 8.0 0.00 0.00 0.00 80 1023.9
20260502002020 60 86 5.0 9.0 0.00 0.00 0.00 79 1023.9
20260502001019 60 84 5.0 10.0 0.00 0.00 0.00 79 1023.9
20260502000025 60 79 5.0 10.0 0.00 0.00 0.00 80 1024.2
20260501235019 60 74 5.0 10.0 0.00 0.00 0.00 80 1024.3
20260501234019 60 75 5.0 8.0 0.00 0.00 0.00 81 1024.4
20260501233021 60 72 5.0 10.0 0.00 0.00 0.00 81 1024.4
20260501232019 60 76 4.0 7.0 0.00 0.00 0.00 80 1024.6
20260501231018 61 84 4.0 9.0 0.00 0.00 0.00 79 1024.7
20260501230022 61 84 4.0 9.0 0.00 0.00 0.00 77 1024.6
20260501224018 61 84 5.0 10.0 0.00 0.00 0.00 77 1024.5
20260501223017 61 84 5.0 9.0 0.00 0.00 0.00 77 1024.4
20260501222019 61 79 4.0 6.0 0.00 0.00 0.00 78 1024.5
20260501221019 61 90 4.0 9.0 0.00 0.00 0.00 79 1024.5
20260501220019 61 79 4.0 8.0 0.00 0.00 0.00 79 1024.7
20260501214024 61 68 4.0 8.0 0.00 0.00 0.00 80 1024.7
20260501213019 61 72 5.0 9.0 0.00 0.00 0.00 80 1024.7
20260501212019 61 76 4.0 9.0 0.00 0.00 0.00 81 1024.6